Manning, SC

5:35 AM EDT on April 29, 2017 (GMT -0400)
Santee Cooper Regional

Weather History for KMNI - July, 2013

Change the Weather History Date:

Wednesday, July 3, 2013

  Actual Average (KCKI) Record (KCKI)
Temperature  
Mean Temperature 78 °F -  
Max Temperature 82 °F 90 °F 98 °F (2012)
Min Temperature 73 °F 66 °F 59 °F (2010)
Cooling Degree Days 12    
Growing Degree Days 28 (Base 50)    
Moisture  
Dew Point 77 °F    
Average Humidity 100    
Maximum Humidity 100    
Minimum Humidity 100    
Precipitation  
Precipitation 1.69 in - - ()
Sea Level Pressure  
Sea Level Pressure 30.19 in    
Wind  
Wind Speed 1 mph (SE)    
Max Wind Speed 12 mph    
Max Gust Speed 29 mph    
Visibility 8 miles    
Events Thunderstorm    
Averages and records for this station are not official NWS values.
T = Trace of Precipitation, MM = Missing Value Source: NWS Daily Summary

Daily Weather History Graph

Daily Weather History Graph

Search for Another Location

Airport or City:

Trip Planner

Search our weather history database for the weather conditions in past years. The results will help you decide how hot, cold, wet, or windy it might be!

Date:

Astronomy

Jul. 03, 2013 Rise Set
Actual Time 6:15 AM EDT 8:34 PM EDT
Civil Twilight 5:46 AM EDT 9:03 PM EDT
Nautical Twilight 5:11 AM EDT 9:38 PM EDT
Astronomical Twilight 4:32 AM EDT 10:17 PM EDT
Moon 2:46 AM EDT (7/3) 4:48 PM EDT (7/3)
Length of Visible Light 15h 17m
Length of Day
14h 19m
Waning Crescent, 18% of the Moon is Illuminated
Jul 3
Waning Crescent
Jul 8
New
Jul 15
First Quarter
Jul 22
Full
Jul 29
Last Quarter

Hourly Weather History & Observations

Time (EDT) Temp. Heat Index Dew Point Humidity Pressure Visibility Wind Dir Wind Speed Gust Speed Precip Events Conditions
12:15 AM 77.0 °F - 77.0 °F 100% 30.15 in 10.0 mi Calm Calm - N/A   Clear
12:35 AM 77.0 °F - 77.0 °F 100% 30.15 in 10.0 mi Calm Calm - N/A   Clear
12:55 AM 77.0 °F - 77.0 °F 100% 30.15 in 7.0 mi Calm Calm - N/A   Scattered Clouds
1:15 AM 77.0 °F - 77.0 °F 100% 30.15 in 7.0 mi Calm Calm - N/A   Scattered Clouds
1:35 AM 77.0 °F - 77.0 °F 100% 30.15 in 7.0 mi SE 3.5 mph - N/A   Clear
1:55 AM 77.0 °F - 77.0 °F 100% 30.15 in 7.0 mi Calm Calm - N/A   Clear
2:15 AM 77.0 °F - 77.0 °F 100% 30.15 in 7.0 mi Calm Calm - N/A   Clear
2:55 AM 75.2 °F - 75.2 °F 100% 30.14 in 7.0 mi ESE 3.5 mph - N/A   Mostly Cloudy
3:15 AM 77.0 °F - 77.0 °F 100% 30.13 in 7.0 mi Calm Calm - N/A   Mostly Cloudy
3:35 AM 75.2 °F - 75.2 °F 100% 30.14 in 5.0 mi Calm Calm - N/A   Mostly Cloudy
3:55 AM 75.2 °F - 75.2 °F 100% 30.14 in 7.0 mi Calm Calm - N/A   Mostly Cloudy
4:15 AM 75.2 °F - 75.2 °F 100% 30.14 in 4.0 mi Calm Calm - 0.01 in   Mostly Cloudy
4:35 AM 75.2 °F - 75.2 °F 100% 30.14 in 5.0 mi Calm Calm - 0.04 in   Scattered Clouds
4:55 AM 77.0 °F - 77.0 °F 100% 30.15 in 5.0 mi Calm Calm - 0.06 in Thunderstorm Thunderstorm
5:15 AM 77.0 °F - 77.0 °F 100% 30.16 in 3.0 mi South 8.1 mph - 0.14 in Thunderstorm Thunderstorm
5:35 AM 73.4 °F - 73.4 °F 100% 30.16 in 4.0 mi South 5.8 mph - 0.46 in Thunderstorm Thunderstorm
5:55 AM 73.4 °F - 73.4 °F 100% 30.17 in 5.0 mi Calm Calm - 0.52 in Thunderstorm Scattered Clouds
6:15 AM 73.4 °F - 73.4 °F 100% 30.17 in 10.0 mi Calm Calm - N/A Thunderstorm Clear
6:35 AM 73.4 °F - 73.4 °F 100% 30.17 in 7.0 mi Calm Calm - N/A   Scattered Clouds
6:55 AM 73.4 °F - 73.4 °F 100% 30.17 in 7.0 mi ESE 3.5 mph - N/A   Clear
7:15 AM 75.2 °F - 75.2 °F 100% 30.17 in 7.0 mi Calm Calm - N/A   Clear
7:35 AM 77.0 °F - 77.0 °F 100% 30.18 in 7.0 mi Calm Calm - N/A   Clear
7:55 AM 77.0 °F - 77.0 °F 100% 30.18 in 7.0 mi Calm Calm - N/A   Clear
8:15 AM 77.0 °F - 77.0 °F 100% 30.18 in 10.0 mi ESE 3.5 mph - N/A   Clear
8:35 AM 78.8 °F - 78.8 °F 100% 30.19 in 10.0 mi SE 4.6 mph - N/A   Clear
8:55 AM 80.6 °F 89.3 °F 80.6 °F 100% 30.19 in 10.0 mi Calm Calm - N/A   Clear
9:15 AM 82.4 °F 96.1 °F 82.4 °F 100% 30.20 in 10.0 mi SE 4.6 mph - N/A   Clear
9:35 AM 82.4 °F 96.1 °F 82.4 °F 100% 30.20 in 10.0 mi SE 6.9 mph - N/A Thunderstorm Scattered Clouds
9:55 AM 80.6 °F 89.3 °F 80.6 °F 100% 30.20 in 7.0 mi ESE 3.5 mph - 0.01 in Thunderstorm Thunderstorm
10:15 AM 75.2 °F - 75.2 °F 100% 30.23 in 2.0 mi South 8.1 mph 28.8 mph 0.28 in Thunderstorm Thunderstorm
10:35 AM 73.4 °F - 73.4 °F 100% 30.23 in 7.0 mi Calm Calm - 0.33 in Thunderstorm Thunderstorm
10:55 AM 73.4 °F - 73.4 °F 100% 30.22 in 10.0 mi Calm Calm - 0.34 in Thunderstorm Clear
11:15 AM 75.2 °F - 75.2 °F 100% 30.23 in 10.0 mi Calm Calm - N/A Thunderstorm Scattered Clouds
11:35 AM 77.0 °F - 77.0 °F 100% 30.22 in 10.0 mi SE 3.5 mph - N/A Thunderstorm Scattered Clouds
11:55 AM 78.8 °F - 78.8 °F 100% 30.20 in 10.0 mi Calm Calm - N/A   Clear
12:15 PM 80.6 °F 89.3 °F 80.6 °F 100% 30.20 in 10.0 mi East 3.5 mph - N/A   Clear
12:35 PM 80.6 °F 89.3 °F 80.6 °F 100% 30.20 in 10.0 mi Calm Calm - N/A Thunderstorm Thunderstorm
12:55 PM 80.6 °F 89.3 °F 80.6 °F 100% 30.21 in 10.0 mi Calm Calm - N/A Thunderstorm Thunderstorm
1:15 PM 78.8 °F - 78.8 °F 100% 30.22 in 3.0 mi South 4.6 mph - 0.08 in Thunderstorm Scattered Clouds
1:35 PM 77.0 °F - 77.0 °F 100% 30.22 in 3.0 mi Calm Calm - 0.15 in Thunderstorm Mostly Cloudy
1:55 PM 77.0 °F - 77.0 °F 100% 30.22 in 10.0 mi Calm Calm - 0.16 in Thunderstorm Thunderstorm
2:15 PM 77.0 °F - 77.0 °F 100% 30.23 in 2.0 mi Calm Calm - 0.10 in Thunderstorm Thunderstorm
2:35 PM 77.0 °F - 77.0 °F 100% 30.22 in 4.0 mi Calm Calm - 0.17 in Thunderstorm Thunderstorm
2:55 PM 77.0 °F - 77.0 °F 100% 30.20 in 10.0 mi Calm Calm - 0.22 in Thunderstorm Scattered Clouds
3:35 PM 78.8 °F - 78.8 °F 100% 30.19 in 10.0 mi ESE 3.5 mph - N/A   Scattered Clouds
3:55 PM 80.6 °F 89.3 °F 80.6 °F 100% 30.18 in 10.0 mi Calm Calm - N/A   Clear
4:15 PM 82.4 °F 96.1 °F 82.4 °F 100% 30.18 in 10.0 mi SE 4.6 mph - N/A Thunderstorm Scattered Clouds
4:35 PM 80.6 °F 89.3 °F 80.6 °F 100% 30.18 in 10.0 mi South 3.5 mph - N/A Thunderstorm Scattered Clouds
4:55 PM 80.6 °F 89.3 °F 80.6 °F 100% 30.18 in 10.0 mi SE 3.5 mph - N/A   Scattered Clouds
5:15 PM 80.6 °F 89.3 °F 80.6 °F 100% 30.18 in 10.0 mi Calm Calm - N/A   Scattered Clouds
5:35 PM 80.6 °F 89.3 °F 80.6 °F 100% 30.18 in 10.0 mi Calm Calm - N/A Thunderstorm Scattered Clouds
5:55 PM 78.8 °F - 78.8 °F 100% 30.18 in 10.0 mi Calm Calm - N/A Thunderstorm Mostly Cloudy
6:15 PM 77.0 °F - 77.0 °F 100% 30.18 in 10.0 mi West 5.8 mph - N/A Thunderstorm Mostly Cloudy
6:35 PM 77.0 °F - 77.0 °F 100% 30.18 in 10.0 mi Calm Calm - N/A Thunderstorm Scattered Clouds
6:55 PM 77.0 °F - 77.0 °F 100% 30.19 in 10.0 mi Calm Calm - N/A   Scattered Clouds
7:15 PM 78.8 °F - 78.8 °F 100% 30.19 in 10.0 mi Calm Calm - N/A   Clear
7:35 PM 78.8 °F - 78.8 °F 100% 30.19 in 10.0 mi Calm Calm - N/A Thunderstorm Clear
8:15 PM 77.0 °F - 77.0 °F 100% 30.20 in 10.0 mi Calm Calm - N/A Thunderstorm Clear
8:35 PM 77.0 °F - 77.0 °F 100% 30.20 in 10.0 mi Calm Calm - N/A   Scattered Clouds
8:55 PM 77.0 °F - 77.0 °F 100% 30.20 in 10.0 mi Calm Calm - N/A   Scattered Clouds
9:15 PM 77.0 °F - 77.0 °F 100% 30.21 in 10.0 mi Calm Calm - N/A   Scattered Clouds
9:35 PM 77.0 °F - 77.0 °F 100% 30.21 in 10.0 mi Calm Calm - N/A   Clear
9:55 PM 77.0 °F - 77.0 °F 100% 30.21 in 10.0 mi Calm Calm - N/A Thunderstorm Scattered Clouds
10:15 PM 77.0 °F - 77.0 °F 100% 30.24 in 2.5 mi SSE 11.5 mph 18.4 mph 0.15 in Thunderstorm Thunderstorm
10:35 PM 77.0 °F - 77.0 °F 100% 30.23 in 3.0 mi SSE 6.9 mph - 0.38 in   Scattered Clouds
10:55 PM 75.2 °F - 75.2 °F 100% 30.23 in 10.0 mi SSE 5.8 mph - 0.38 in   Scattered Clouds
11:15 PM 73.4 °F - 73.4 °F 100% 30.22 in 10.0 mi SE 3.5 mph - N/A   Clear
11:35 PM 73.4 °F - 73.4 °F 100% 30.23 in 10.0 mi Calm Calm - N/A   Clear
11:55 PM 73.4 °F - 73.4 °F 100% 30.23 in 10.0 mi ESE 3.5 mph - N/A   Scattered Clouds